Wind_Speed
20 20 20 20 19 18 18 18 17 17 17 17 17 17 17 17 17 16 16 17 17 18 18 18 18 17 16 16 17 18 20 19 16 10 4 6 6 3 2 2 3 6 7 8 11 9 9 9 9 12 6 3 1 1 2 2 2 2 2 5 8 7 6 5 6 6 5 4 6 8 8 9 6 4 2 0 3 4 5 4 5 4 3 4 4 14 31 33
20 20 20 19 19 18 18 18 18 17 17 17 17 17 17 16 16 16 16 16 17 18 17 17 17 16 15 15 16 17 19 17 12 7 5 9 8 3 1 2 3 5 6 8 9 7 6 6 7 9 5 1 1 1 2 2 2 3 2 4 8 5 4 4 6 6 4 5 7 7 7 9 7 5 3 3 5 4 6 4 4 6 3 6 11 19 29 30
19 20 20 19 19 18 18 18 18 18 17 17 17 17 16 16 16 15 15 16 16 17 17 17 16 15 15 15 15 15 16 12 5 4 7 9 8 6 3 3 4 5 6 6 7 6 3 5 6 4 3 1 2 1 2 2 2 3 2 4 6 3 2 3 5 6 5 5 4 5 5 5 5 4 3 5 8 7 7 5 4 6 4 6 11 17 26 28
20 20 20 20 19 19 19 19 19 18 18 18 17 16 16 15 15 15 15 16 16 16 16 16 15 15 14 13 13 12 10 5 2 4 6 7 7 6 5 2 2 3 5 4 5 6 6 5 3 1 2 1 3 1 2 3 2 2 4 5 5 2 3 5 5 5 4 4 3 3 2 3 4 3 4 5 6 6 6 8 8 9 9 9 11 15 21 24
21 21 21 20 20 20 19 19 19 19 18 18 17 16 16 15 15 16 16 17 17 17 17 15 15 16 14 12 11 9 5 4 3 5 4 6 6 5 4 3 1 1 2 3 5 6 5 2 3 3 2 1 3 1 2 5 2 2 5 6 5 2 3 6 6 6 5 3 3 2 3 4 3 2 5 6 7 6 5 8 11 12 12 13 14 15 16 17
21 21 21 20 20 20 20 19 19 18 18 18 17 16 16 16 17 17 17 18 17 17 17 15 15 16 14 11 9 6 4 2 4 3 4 5 5 4 3 3 2 1 2 4 5 5 3 3 4 3 2 1 1 1 4 4 3 4 5 3 5 4 4 5 3 5 5 3 5 4 3 3 1 3 4 6 8 7 5 6 10 10 11 16 17 17 16 16
22 21 21 21 21 20 20 19 19 19 18 17 17 17 18 18 18 18 18 18 16 16 16 14 14 14 13 11 6 3 4 1 4 3 3 4 5 4 3 3 3 3 3 4 4 2 2 4 4 2 3 2 1 3 4 4 2 5 5 2 4 5 6 6 4 4 4 4 6 3 1 2 3 4 3 4 8 8 6 5 5 2 4 13 15 17 19 19
22 22 21 21 21 21 20 19 19 18 17 17 17 18 18 19 19 19 18 17 15 14 13 12 12 12 13 9 3 3 2 2 5 6 4 4 6 6 4 5 4 4 4 3 3 1 1 2 2 2 2 2 0 2 3 4 2 4 5 4 4 5 6 6 6 6 4 5 5 2 3 5 6 5 3 6 8 10 8 5 4 3 8 11 13 18 20 19
22 22 22 22 21 21 20 19 19 18 17 18 19 19 19 20 19 18 17 16 14 12 12 11 10 10 11 7 3 4 3 3 5 7 5 5 8 9 8 7 4 5 4 3 3 1 1 0 1 1 0 2 1 3 3 3 2 4 4 4 4 6 7 7 7 7 5 3 3 4 7 5 6 4 4 8 10 11 10 6 4 6 10 12 14 16 16 17
22 22 23 22 21 21 20 19 18 18 18 19 20 20 20 20 18 17 17 15 13 10 10 9 9 10 8 5 5 4 3 4 5 7 7 7 9 9 10 10 8 8 5 2 3 4 3 3 3 2 2 1 1 3 1 2 2 4 4 5 6 8 7 6 7 9 6 3 5 5 6 8 5 4 4 7 10 10 7 4 5 8 11 13 14 14 12 13
23 23 23 22 22 21 20 19 19 19 20 21 21 21 20 19 17 16 16 15 12 9 8 7 8 8 6 3 5 2 4 5 7 9 9 8 8 9 9 10 10 9 5 3 5 6 6 5 2 2 1 0 2 4 2 3 3 4 4 4 8 7 6 6 8 8 5 4 6 6 6 8 5 6 8 6 6 6 4 4 7 9 10 12 14 13 11 10
23 23 23 23 21 21 20 19 20 21 21 21 22 21 20 18 15 14 13 12 10 7 6 6 7 7 5 4 3 2 5 8 10 10 8 7 8 9 9 11 12 11 8 5 7 8 7 5 1 2 2 0 2 3 3 3 3 4 1 2 8 3 4 8 7 7 5 4 5 7 4 6 9 11 7 6 6 7 5 7 8 10 10 11 12 10 9 10
24 24 24 23 21 21 20 19 20 21 21 21 21 21 20 18 13 11 10 9 7 5 4 4 6 6 4 2 3 4 7 10 12 9 7 7 9 9 10 11 12 13 12 10 13 12 8 6 2 2 3 2 2 3 2 4 3 5 0 2 5 5 3 7 7 7 8 6 6 6 3 7 14 11 3 5 8 5 5 7 8 9 9 10 10 10 10 10
24 24 24 23 21 20 19 19 20 20 21 20 18 20 20 15 10 9 8 7 6 4 3 3 6 4 2 2 4 6 10 11 11 8 5 6 9 10 10 9 10 12 12 12 14 12 8 6 2 2 2 3 3 3 5 5 2 3 2 1 2 1 4 6 5 8 8 5 8 7 5 9 13 5 4 6 7 7 6 7 8 8 8 9 9 9 9 10
25 25 25 22 20 19 19 19 19 20 20 18 18 20 17 11 8 6 5 6 6 3 2 2 4 3 3 3 4 9 12 10 11 11 7 7 8 8 9 10 12 11 8 8 9 6 4 3 2 1 3 1 2 3 4 4 3 2 1 4 2 2 5 7 4 11 11 5 7 9 5 7 10 5 5 6 3 6 7 8 9 9 9 9 8 8 8 8
26 25 24 22 19 18 18 18 19 20 18 17 19 19 13 8 4 2 4 9 7 1 1 1 2 3 2 2 7 10 9 9 16 15 8 8 7 7 9 12 12 8 7 8 5 4 4 3 1 1 1 2 3 4 3 4 4 3 1 3 3 2 3 5 5 7 12 6 6 11 7 3 6 7 7 5 4 5 5 6 9 10 10 9 8 8 7 7
26 25 24 22 19 17 17 17 18 19 16 17 19 15 9 5 3 4 7 12 5 1 1 0 0 2 1 3 7 8 7 13 20 16 9 7 6 7 9 8 6 7 10 8 0 3 1 1 1 0 2 2 2 4 2 2 4 3 1 1 3 2 2 2 4 2 5 6 8 13 9 4 5 7 6 4 7 7 5 7 8 10 10 9 9 8 8 8
26 25 24 21 18 16 15 16 17 16 16 19 17 10 6 3 2 2 8 10 3 2 2 1 1 3 2 6 7 8 12 18 19 15 10 6 4 6 6 3 2 6 7 6 3 2 2 1 2 1 3 3 2 4 2 4 4 3 1 1 3 3 1 3 3 1 1 4 9 10 7 6 6 8 7 4 6 7 7 8 9 10 11 10 10 10 10 9
26 25 24 21 17 15 15 15 14 14 17 21 15 6 5 4 1 2 6 7 3 2 2 3 3 2 4 7 9 12 16 17 13 10 8 5 4 4 3 2 3 4 4 3 4 3 1 2 3 2 3 4 2 4 6 7 4 4 3 2 2 3 4 6 5 5 2 2 7 6 5 6 5 9 10 5 5 7 7 6 7 9 10 11 10 10 10 11
25 25 24 20 16 14 14 14 12 12 16 21 16 6 5 6 3 3 6 5 1 1 2 2 1 1 5 6 9 14 15 10 5 6 10 7 5 3 2 5 5 5 4 2 4 2 3 3 2 4 5 7 7 7 7 5 3 3 2 3 3 3 5 7 5 6 3 3 5 4 6 6 7 9 9 4 5 7 7 6 6 7 8 9 9 9 10 12
26 26 23 19 15 12 13 11 10 11 14 19 17 8 3 3 3 2 5 5 3 3 4 5 4 5 7 9 10 10 7 4 3 7 10 6 4 2 2 4 6 5 4 2 3 3 4 5 3 6 7 8 8 7 5 4 3 2 3 3 3 3 5 8 5 4 2 3 3 2 7 6 8 9 5 3 5 7 9 9 8 8 8 7 7 8 8 8
27 26 23 18 14 11 11 9 7 8 11 16 16 8 2 2 0 3 2 3 6 4 3 5 3 4 9 10 8 5 1 3 6 9 9 6 5 3 2 4 5 2 4 3 3 5 4 1 6 8 6 5 4 5 5 4 4 2 2 2 2 4 4 7 6 4 1 3 2 2 5 6 7 7 4 5 7 6 9 10 10 11 10 7 7 7 6 5
28 26 22 17 13 11 9 6 6 7 8 11 10 6 4 7 3 5 0 1 5 5 2 3 1 3 6 5 4 5 2 1 4 8 7 6 4 2 2 3 3 2 4 4 3 3 2 4 7 7 6 5 3 1 2 2 2 2 3 3 3 3 1 3 5 5 4 1 0 3 3 4 5 4 4 5 5 4 5 7 7 8 11 11 10 9 8 8
29 25 20 16 13 11 8 4 4 8 8 5 6 6 8 11 5 2 1 1 3 5 3 2 1 1 3 5 7 6 2 2 1 6 7 4 2 1 2 1 2 2 3 2 2 2 3 7 6 4 5 5 5 4 4 4 3 2 3 3 3 4 2 4 3 5 4 3 3 5 3 4 4 2 5 3 2 4 3 3 5 6 8 11 11 11 11 11
30 24 19 16 12 10 7 1 3 10 8 2 3 7 10 12 6 1 1 2 2 5 3 2 1 2 5 8 8 4 1 2 2 5 6 4 2 1 2 0 2 1 5 3 0 2 5 6 3 3 5 6 6 4 3 3 3 4 2 4 5 5 4 4 4 4 4 3 3 4 2 4 5 2 6 4 3 4 3 1 6 8 7 8 9 10 10 10
30 23 18 15 12 11 6 0 4 11 7 1 3 8 11 12 6 2 2 3 2 4 5 4 2 5 9 7 7 3 3 3 7 6 5 6 3 0 1 2 1 1 4 3 1 1 3 2 3 3 3 6 5 3 1 3 5 3 2 4 3 2 3 4 3 4 3 2 3 3 3 3 5 3 5 4 2 4 5 5 6 6 6 7 8 8 8 9
30 22 16 13 11 11 5 0 6 8 2 0 5 9 11 12 6 3 2 5 3 3 4 5 3 6 9 7 7 4 3 6 9 6 7 9 6 0 1 3 2 2 2 2 2 1 2 4 5 4 4 5 4 2 2 3 5 2 3 1 2 3 2 1 3 4 1 3 3 5 3 2 3 4 3 2 1 3 5 6 7 5 6 7 7 7 8 10
29 21 15 10 9 10 5 4 7 4 0 4 7 10 13 12 5 1 4 4 3 2 1 3 5 7 8 7 7 4 2 6 4 5 13 12 5 2 2 3 2 4 2 2 2 4 2 2 3 4 5 3 0 2 4 2 3 5 4 1 2 1 1 2 5 3 1 1 3 6 3 2 4 5 3 2 3 3 6 7 7 6 5 5 6 6 6 7
29 20 13 8 7 7 5 6 6 2 2 5 8 12 14 9 2 3 5 2 2 2 1 2 6 7 8 6 6 5 2 3 2 6 12 10 7 4 1 2 2 2 2 2 3 5 2 3 3 2 1 2 4 5 4 3 1 4 1 3 3 4 3 4 5 2 3 4 1 5 4 1 3 5 4 2 4 2 6 6 6 7 6 6 5 6 7 6
28 19 11 7 6 6 5 7 4 1 4 6 10 13 9 3 4 5 4 1 2 3 1 3 4 3 6 6 5 6 4 3 2 5 5 4 7 6 2 1 2 2 3 3 1 5 5 3 2 3 2 4 4 3 1 1 3 2 4 3 4 6 4 3 3 3 4 3 4 5 1 2 1 5 3 0 1 2 2 1 4 6 7 6 4 4 5 5
27 18 10 6 6 5 5 4 2 2 7 10 12 9 3 2 4 5 1 1 1 3 3 4 3 3 6 5 4 6 5 4 6 6 5 4 6 8 5 4 4 4 4 5 4 6 7 4 1 2 3 1 1 1 2 3 3 3 4 3 3 3 4 4 4 3 4 2 5 3 1 3 1 4 3 3 5 3 3 2 4 6 7 7 6 5 4 4
25 15 9 6 6 7 6 5 5 8 11 11 8 5 3 2 4 2 2 3 2 3 2 2 4 4 5 4 4 6 4 4 6 5 4 4 5 5 5 3 2 3 4 3 4 6 5 2 3 4 3 2 4 2 3 6 5 5 4 4 3 2 3 2 3 2 1 3 2 3 3 1 3 6 4 3 5 6 3 2 3 5 7 7 7 7 6 5
22 13 8 7 6 7 8 8 10 11 12 9 4 4 5 4 2 2 3 2 1 3 1 1 3 4 4 4 5 6 3 2 5 5 3 2 4 3 3 4 3 2 1 2 2 4 4 4 6 6 3 2 4 3 2 4 4 4 3 3 2 2 3 1 3 1 1 3 2 4 3 1 3 5 4 5 6 6 5 4 4 5 6 7 7 7 7 7
20 10 8 7 6 6 6 7 8 9 10 6 4 5 6 4 1 2 2 3 2 2 2 1 4 5 4 3 2 4 3 2 5 6 4 3 4 3 4 5 6 3 1 1 2 2 2 3 4 3 2 3 3 2 1 1 1 1 3 4 2 3 3 2 2 1 2 2 3 4 1 2 2 3 4 5 5 5 6 4 3 5 6 5 6 7 7 8
18 8 6 6 6 6 5 5 6 7 7 4 6 6 5 2 3 1 2 4 1 3 3 2 3 4 4 3 2 2 2 2 5 5 4 3 2 2 4 4 5 4 2 2 1 1 2 3 6 3 3 2 4 2 2 4 2 2 2 4 1 2 3 2 2 3 2 1 2 2 2 3 3 5 4 1 1 2 4 5 5 5 6 5 6 6 6 6
15 4 4 6 5 5 6 5 5 6 4 5 7 4 2 3 2 3 3 2 1 1 3 4 4 3 4 4 3 4 2 1 3 4 3 3 1 1 3 2 2 4 3 1 1 1 2 4 6 5 4 2 2 2 1 3 0 2 2 1 2 3 5 4 1 1 4 2 2 2 2 4 4 6 5 5 5 4 3 5 5 5 6 6 6 6 6 6
15 3 4 7 6 5 6 5 4 4 3 7 6 2 2 3 3 4 3 0 1 2 4 3 2 2 3 3 3 5 3 1 3 3 2 3 2 1 3 3 2 3 1 2 1 1 0 4 5 4 3 5 1 2 2 2 2 2 1 2 2 1 3 4 2 3 4 1 3 2 2 4 2 3 6 8 6 3 2 1 3 6 5 5 5 6 7 7
13 2 3 8 8 5 5 5 3 3 4 6 3 1 1 1 2 2 2 2 1 3 5 2 1 1 1 1 3 4 3 3 3 4 2 2 3 1 2 1 3 3 1 2 1 1 1 3 5 1 2 7 3 5 3 5 3 3 2 2 1 2 1 1 2 0 1 1 3 3 3 3 2 4 6 8 6 6 5 2 1 3 4 5 5 6 8 8
8 2 2 8 9 5 3 3 2 4 6 4 1 1 1 1 2 2 3 2 2 3 3 1 1 1 1 1 2 3 3 2 2 2 1 1 2 2 1 0 2 5 3 2 2 2 1 1 4 3 3 5 5 4 2 5 5 3 2 2 2 3 2 1 1 2 1 1 2 3 3 3 4 5 4 6 7 6 7 6 3 2 2 3 5 6 7 8
4 3 1 5 10 4 2 3 3 5 5 2 2 2 1 2 3 2 2 2 1 2 1 2 2 1 3 2 2 2 1 1 0 1 0 0 2 3 2 1 2 5 5 2 1 1 1 1 3 5 4 3 2 1 2 1 2 3 3 4 3 2 1 0 1 1 2 2 1 1 3 5 5 4 5 7 7 6 6 6 6 4 0 2 5 5 6 6
3 3 2 6 12 3 2 4 4 3 3 1 1 2 1 0 1 3 1 1 1 1 1 3 3 1 1 1 2 1 1 1 0 0 1 1 1 2 2 2 1 3 4 3 2 1 1 1 1 4 4 3 3 4 4 4 2 2 1 2 1 1 2 2 1 2 1 1 2 2 3 6 5 3 4 4 3 5 5 5 6 6 4 3 6 6 6 6
3 3 1 10 14 1 4 5 2 2 3 1 0 2 1 2 1 2 3 2 1 1 1 2 2 2 2 2 1 1 1 1 1 1 1 2 1 2 3 3 1 1 1 1 2 2 1 2 0 3 3 5 8 6 1 4 3 4 3 2 2 2 3 4 1 2 2 1 1 2 1 6 5 2 1 2 3 5 6 6 8 10 8 6 6 6 6 6
2 1 2 14 13 2 6 5 3 3 2 2 2 1 1 1 1 1 2 2 1 1 2 1 1 1 1 2 1 0 1 1 1 1 1 2 2 4 5 4 3 2 0 0 2 2 0 2 1 3 3 4 6 5 4 3 4 5 3 3 3 2 2 3 3 2 0 1 0 1 2 6 5 2 2 1 7 9 8 8 11 12 12 11 10 9 8 7
0 3 3 13 13 3 5 3 1 2 3 3 3 3 3 1 1 1 1 1 1 1 1 1 1 1 1 1 1 2 2 0 1 2 1 1 2 4 5 4 3 1 1 1 2 1 1 1 1 2 3 3 4 4 4 4 4 3 2 3 3 3 2 1 1 2 1 2 3 2 4 5 4 4 6 9 11 12 11 10 11 12 13 13 13 12 11 11
2 1 3 9 14 8 3 2 3 1 2 3 4 3 4 2 1 1 1 2 1 2 2 1 1 2 1 1 1 2 1 1 1 2 1 1 3 4 3 3 2 1 1 3 2 1 0 1 0 1 1 1 2 2 1 2 3 1 1 3 3 3 3 2 1 2 0 1 2 3 5 9 7 5 9 11 10 13 15 13 11 10 11 13 12 12 11 11
2 2 2 6 9 7 2 0 3 2 1 2 2 1 3 2 4 2 1 2 1 2 1 1 0 1 2 3 3 3 2 1 2 1 1 2 2 2 3 4 3 2 4 3 2 2 2 0 2 3 3 3 4 4 1 2 2 2 1 3 3 2 3 2 1 1 0 2 3 5 8 14 14 7 8 12 12 14 16 14 12 11 11 12 13 13 14 12
2 1 1 2 3 3 3 3 4 2 1 2 2 1 2 2 4 3 1 1 1 1 0 0 1 2 1 2 2 2 3 2 2 2 2 3 3 3 4 4 2 3 5 4 2 2 2 1 2 4 5 6 6 6 3 2 2 2 2 3 3 2 3 2 1 1 0 1 4 4 5 13 17 14 14 16 15 13 14 15 15 13 13 14 15 16 17 16
2 1 1 1 0 1 1 3 3 3 2 1 2 1 2 2 3 2 2 3 2 2 1 2 2 1 2 1 1 1 3 3 2 3 2 2 2 3 5 3 1 3 5 3 3 2 2 1 2 2 4 6 5 6 6 3 1 2 3 3 4 5 4 2 2 3 2 3 6 7 8 13 17 17 17 16 14 14 15 15 15 16 17 18 18 19 20 19
2 1 1 1 1 2 2 2 3 3 2 1 2 3 2 1 2 2 2 3 3 2 2 1 6 5 2 3 2 0 2 2 3 4 2 2 3 2 3 3 1 3 4 3 3 2 2 1 3 3 5 6 5 4 3 2 2 4 3 3 4 5 5 5 5 6 6 8 10 11 14 16 16 15 15 14 13 14 14 15 16 18 19 19 19 20 20 20
2 1 1 2 2 1 1 2 2 3 3 2 2 2 1 1 2 3 2 1 1 3 1 1 7 7 2 4 4 2 3 2 3 5 2 2 3 1 0 1 2 3 4 3 2 2 1 2 4 4 4 4 4 2 1 2 4 6 4 3 3 5 5 5 5 5 6 8 10 11 13 15 12 9 10 12 13 15 16 17 18 18 18 19 19 20 20 21
1 1 1 2 2 2 2 2 2 3 2 2 1 0 0 1 1 2 3 3 3 3 2 3 7 6 1 2 2 4 6 5 6 8 5 2 2 3 1 0 1 3 4 3 2 3 2 2 3 4 3 3 4 2 1 4 6 5 8 8 6 6 6 5 6 6 6 8 10 9 9 9 9 9 11 15 16 17 19 19 18 17 18 20 22 22 23 22
2 0 1 3 1 2 2 2 2 2 0 1 1 1 1 3 2 1 2 4 2 3 3 2 3 2 3 4 4 4 6 7 8 8 5 3 3 3 1 1 2 0 2 2 2 2 2 2 2 3 2 3 5 5 1 3 4 3 7 7 5 6 9 9 8 7 7 6 6 6 7 9 11 13 16 19 19 19 19 17 16 18 20 22 23 24 25 25
Wind_Direction
350 349 348 347 347 346 345 345 344 342 341 339 338 337 336 336 335 335 333 331 327 325 326 326 326 327 330 331 329 329 332 333 335 337 340 354 349 311 266 277 299 332 350 353 356 357 351 2 5 4 28 132 124 205 207 189 150 138 175 219 225 214 210 181 170 192 167 158 198 199 182 189 215 226 232 4 192 176 191 213 164 157 71 103 103 131 147 153
347 348 347 347 347 346 345 344 343 341 338 337 337 335 335 335 334 333 331 329 326 325 326 326 326 326 328 329 329 332 332 330 330 330 355 17 14 4 289 257 282 313 335 351 357 9 10 345 337 359 29 83 310 201 210 209 174 186 147 218 229 207 209 189 170 189 171 172 201 203 188 193 204 197 193 199 221 185 171 234 187 153 71 86 118 137 147 154
346 347 347 348 346 345 344 342 341 338 337 336 334 333 334 333 331 330 329 329 327 327 327 327 327 325 328 328 331 334 328 329 344 352 10 23 25 26 10 297 289 293 319 344 348 353 341 306 310 351 35 350 281 182 185 228 201 197 161 226 239 185 220 239 182 193 206 185 188 218 192 191 213 197 201 205 214 203 182 210 182 165 168 139 140 147 153 163
348 348 348 347 345 344 342 340 339 336 335 333 331 332 331 329 330 332 335 336 332 331 328 327 328 328 329 330 335 332 329 356 9 326 2 19 19 31 34 10 301 281 311 331 336 331 313 302 313 31 63 338 303 40 163 235 234 196 198 219 243 179 223 260 233 224 226 184 178 242 220 223 236 206 220 202 204 223 208 203 184 178 182 167 159 161 164 169
348 348 347 346 343 342 340 339 337 334 333 331 330 329 330 332 336 340 344 344 339 337 335 336 339 338 336 336 337 328 351 51 304 305 4 18 17 25 36 40 33 297 321 322 326 331 320 328 49 59 59 348 325 18 217 229 179 214 233 216 238 231 235 255 240 241 240 186 186 257 257 239 246 235 225 199 207 226 212 204 187 182 180 170 167 167 172 175
347 347 345 343 342 340 339 337 335 333 331 330 330 332 337 340 342 344 344 344 342 341 343 347 349 345 344 344 336 336 54 89 280 326 12 12 17 14 20 17 9 343 309 310 324 344 347 24 39 41 53 353 291 211 254 252 183 230 256 215 227 215 222 251 238 247 252 192 191 215 236 223 230 273 251 205 218 228 234 227 199 196 186 173 168 165 173 183
346 345 343 342 341 338 337 336 333 332 331 333 338 341 344 343 344 343 341 343 342 342 345 352 352 348 351 347 328 2 73 226 295 345 344 358 356 343 356 340 333 307 293 309 326 352 10 27 24 89 89 5 291 229 270 297 227 223 251 262 248 220 219 246 257 268 276 241 215 192 254 252 230 256 287 243 246 253 268 276 231 213 151 163 165 168 177 185
344 343 342 342 339 337 336 334 333 335 337 342 345 346 345 344 344 340 338 338 336 340 345 353 355 351 354 352 344 28 35 273 336 346 320 335 325 320 324 313 311 291 293 304 291 284 7 28 25 102 72 339 250 264 296 345 306 219 233 263 253 237 229 242 261 272 274 260 244 237 261 234 207 215 235 236 264 274 265 259 237 128 122 156 173 181 183 186
344 343 342 340 338 337 335 334 338 342 346 349 348 347 346 344 342 337 333 330 329 333 340 350 354 355 357 355 62 56 329 291 343 342 328 323 313 312 301 292 292 288 295 294 269 212 174 219 264 144 160 268 257 307 331 19 306 213 224 255 247 248 238 229 247 256 250 244 236 256 275 251 202 203 238 220 226 254 265 259 219 148 152 170 183 189 188 190
344 342 341 339 337 336 335 338 344 349 351 350 348 346 346 343 340 335 327 323 321 320 330 344 351 358 358 357 63 64 318 320 339 331 329 316 301 298 295 288 280 281 279 258 208 180 185 211 231 194 179 241 278 288 295 135 235 232 237 253 243 244 243 215 223 245 239 223 216 227 278 279 241 203 241 237 217 228 255 260 187 160 175 180 183 189 190 194
343 341 340 338 337 336 338 344 348 351 351 348 347 345 345 343 339 331 323 321 317 310 315 330 353 357 352 32 83 78 318 328 326 325 329 316 297 293 301 300 285 277 266 239 220 219 226 232 214 112 157 174 301 294 266 206 257 272 250 275 267 247 247 223 209 230 231 237 214 186 250 278 263 220 223 228 228 225 195 179 178 176 186 186 188 189 188 180
342 340 339 339 336 337 344 350 350 351 350 348 346 344 345 343 337 327 324 327 320 305 298 321 356 346 346 51 131 238 320 323 319 323 321 308 299 297 305 307 294 281 269 253 258 250 236 245 78 76 250 228 335 313 283 252 282 290 223 291 296 300 244 231 206 208 209 229 184 158 246 270 246 238 221 194 219 241 204 171 179 187 190 190 193 189 187 175
341 340 339 337 336 340 348 352 350 351 349 348 345 343 341 338 335 327 326 334 326 305 287 321 345 334 2 21 252 290 319 315 313 311 307 300 297 302 307 305 297 289 277 260 268 270 248 243 211 214 231 143 275 271 315 319 310 301 348 172 301 355 280 230 196 189 199 206 158 158 238 245 246 243 181 190 202 211 205 184 185 191 194 193 193 190 186 173
341 340 339 337 340 345 350 351 351 351 348 347 344 340 337 335 331 324 328 340 337 316 286 325 341 340 32 283 280 334 329 323 321 308 300 295 293 306 314 311 307 302 289 268 269 274 255 238 200 220 225 162 245 286 327 344 7 310 306 223 315 351 274 256 197 177 193 204 155 172 234 235 249 235 155 224 198 170 187 192 193 190 193 196 193 195 194 182
341 341 339 340 344 348 351 351 350 349 347 347 342 338 339 338 328 325 347 356 352 336 288 342 356 6 24 294 305 342 337 339 337 325 308 294 290 301 314 319 319 319 315 292 277 264 219 199 138 206 261 257 36 14 329 335 3 2 313 295 324 183 263 295 241 180 184 198 157 181 227 241 252 232 200 238 200 188 199 191 187 185 193 194 193 200 204 200
341 340 339 342 346 350 352 351 349 347 347 348 342 342 346 345 342 29 27 4 1 1 304 9 23 55 77 308 330 344 344 337 334 332 312 291 288 287 303 315 317 319 325 312 274 218 188 165 111 155 232 330 58 79 18 353 333 355 83 262 274 211 261 303 282 203 186 176 172 204 220 223 247 246 234 230 195 205 205 193 184 181 190 189 193 205 206 204
341 340 339 343 348 351 353 352 348 345 351 354 346 346 354 8 75 93 21 11 26 111 42 206 234 54 86 302 338 340 326 325 330 331 318 307 298 293 300 309 317 316 325 334 76 152 154 120 49 12 49 14 79 97 48 329 293 313 1 269 259 240 228 259 302 298 196 195 203 214 219 216 248 266 264 226 201 199 194 198 189 183 190 190 192 197 201 203
340 340 341 344 348 352 355 354 349 351 359 359 353 356 12 47 108 55 10 12 38 94 42 285 10 53 302 311 328 306 303 315 321 320 324 336 325 308 300 290 332 333 345 9 38 52 3 13 58 27 9 358 37 94 148 224 218 220 243 335 309 299 264 251 276 323 182 225 225 214 211 226 258 275 264 219 194 199 206 204 190 188 189 191 193 195 196 196
339 339 341 345 349 352 356 355 355 4 9 5 5 22 37 33 315 335 5 7 33 75 8 322 28 92 253 294 303 300 308 312 310 316 340 2 335 319 323 355 16 6 26 21 346 8 49 25 30 3 318 297 242 168 192 216 197 188 194 170 239 287 283 265 258 260 235 185 240 223 194 210 225 251 251 226 193 198 216 216 198 197 192 191 195 196 193 196
339 340 342 345 350 353 356 356 2 17 22 16 15 31 37 18 355 338 343 350 87 169 289 271 121 213 267 288 296 311 324 318 293 331 350 349 329 332 23 24 29 34 38 346 313 334 82 60 336 258 256 260 244 212 209 227 201 171 176 194 232 258 277 273 252 260 242 159 254 214 169 201 211 233 247 223 200 198 205 208 201 207 202 197 199 200 198 203
341 342 343 347 351 355 356 357 11 29 37 32 31 45 62 24 30 341 329 323 275 254 258 242 216 242 267 276 291 316 338 326 300 338 348 347 356 5 341 21 41 25 350 306 301 333 57 62 296 266 255 258 252 224 212 239 235 201 209 230 263 233 249 269 254 268 244 160 279 179 158 211 219 229 243 169 181 202 206 199 189 201 208 201 200 207 207 203
345 344 345 347 351 356 354 358 20 32 41 42 45 66 110 7 291 243 319 330 296 286 250 263 248 253 275 276 288 313 350 327 321 329 345 356 13 17 343 47 64 348 319 354 13 360 27 16 283 288 288 282 256 216 195 223 232 201 186 176 252 246 261 285 286 310 344 143 271 208 173 233 239 239 240 177 183 207 215 203 187 189 198 203 199 204 204 183
348 347 347 346 349 355 352 1 26 26 32 42 52 70 27 2 313 243 120 41 298 308 296 312 289 279 315 317 324 351 351 326 320 313 336 4 7 37 70 52 50 335 341 25 52 23 4 260 271 302 328 1 16 329 134 160 225 171 145 138 231 261 281 278 296 334 350 62 145 159 175 277 289 274 247 215 212 237 238 221 213 198 193 200 200 197 195 183
350 349 347 344 348 355 352 3 31 16 13 38 58 45 13 359 345 230 111 103 301 301 273 298 278 259 332 326 330 351 323 253 283 306 332 12 347 29 96 110 47 21 332 347 137 181 245 253 273 323 354 30 51 30 63 86 0 316 167 159 255 292 267 229 285 337 348 9 54 85 47 313 331 293 249 274 292 276 283 238 252 254 218 207 204 201 199 191
352 349 345 343 346 354 348 336 26 5 357 43 60 13 359 353 346 193 103 78 331 302 289 325 1 341 325 320 323 326 266 269 247 283 315 348 324 340 17 346 87 353 291 296 174 230 257 258 298 354 4 36 68 43 33 89 28 335 232 203 249 288 283 276 328 12 37 1 341 65 56 288 322 287 250 309 331 254 300 264 227 242 241 226 212 208 203 194
353 348 341 341 343 351 352 247 359 354 352 86 25 350 349 349 336 205 98 58 348 309 329 344 13 350 332 329 326 343 72 323 296 300 333 348 327 174 13 330 47 291 276 304 342 255 272 296 33 18 19 42 53 35 354 115 78 358 242 197 245 308 279 280 358 52 88 258 295 64 132 245 318 293 247 314 303 239 295 298 245 227 228 232 221 208 200 194
353 346 339 336 339 351 5 315 336 343 356 3 336 337 341 343 325 237 53 42 352 305 321 323 344 353 337 322 329 26 95 302 307 333 353 344 324 52 27 310 331 298 268 34 8 264 284 339 11 18 40 47 40 18 283 130 95 309 253 173 323 339 283 236 82 79 169 243 328 15 92 133 307 273 254 331 177 231 278 280 267 244 220 232 236 221 203 196
353 345 333 328 332 342 347 326 330 338 266 302 320 329 331 334 321 229 75 68 325 314 293 303 320 335 331 323 350 57 191 299 343 326 331 352 4 35 357 288 231 265 266 101 293 269 255 314 340 10 26 24 32 239 250 137 100 267 255 49 351 8 99 83 88 90 1 34 343 334 25 107 268 280 307 30 120 205 254 257 270 276 262 259 264 260 245 220
353 346 329 320 319 321 321 321 325 321 297 306 320 326 326 332 359 65 69 108 300 331 174 316 332 328 331 340 8 33 332 340 70 296 323 9 22 14 5 258 223 264 329 112 222 262 244 216 206 101 47 261 244 251 235 150 273 280 131 71 33 51 55 60 82 94 38 51 264 296 353 86 265 294 317 27 90 189 246 259 276 287 287 267 251 255 264 268
353 346 325 309 308 311 312 313 314 309 313 314 320 327 336 14 69 59 39 212 289 313 258 354 348 323 346 357 355 358 359 349 333 321 334 9 359 10 64 311 41 83 7 15 229 263 285 265 173 132 195 223 234 260 228 179 273 342 64 51 26 24 18 37 51 73 57 12 257 260 349 99 269 288 276 247 96 179 174 341 303 301 309 300 277 261 251 254
353 344 323 302 293 297 302 306 314 307 313 318 322 335 10 46 63 83 73 244 269 314 343 358 333 347 6 10 350 342 350 336 339 5 4 344 6 20 28 9 26 48 5 360 350 315 332 5 11 258 253 254 352 340 357 344 340 58 62 50 39 348 0 25 358 34 79 276 262 274 1 103 168 263 242 229 267 270 122 86 327 310 312 313 311 312 295 260
353 346 329 306 283 282 282 287 303 309 314 322 336 15 86 34 27 106 257 321 330 306 340 317 307 349 348 346 360 343 338 339 349 20 10 355 28 34 38 31 358 12 2 345 343 336 345 353 320 318 311 14 44 28 346 349 13 49 55 58 68 346 10 14 317 7 144 237 277 341 355 102 210 246 241 222 255 269 236 206 305 303 303 315 321 323 323 312
352 348 344 331 302 294 293 296 305 311 317 326 3 56 80 71 30 237 267 322 269 265 287 293 305 336 345 359 360 334 336 346 345 7 9 17 43 29 27 29 28 57 13 301 353 358 342 315 340 7 347 6 76 84 358 332 358 35 69 88 95 101 66 301 271 352 260 251 318 332 333 303 274 269 236 209 224 247 251 247 272 284 290 307 314 320 323 321
351 348 352 348 336 326 312 307 307 308 318 342 64 59 61 77 251 261 289 267 250 304 354 13 327 336 3 14 325 327 359 339 341 5 359 15 41 9 346 7 21 45 91 41 24 25 19 314 326 14 321 336 40 113 151 147 14 9 154 135 115 142 137 201 220 179 225 265 319 318 317 173 214 233 208 210 229 254 270 273 301 305 298 306 314 321 326 322
350 341 351 2 0 349 327 315 318 314 326 31 71 58 74 135 255 262 259 256 272 331 328 18 22 10 356 325 304 4 31 305 337 7 5 17 52 2 346 356 10 21 56 54 326 301 71 255 263 283 262 304 2 309 158 107 55 285 163 96 46 184 142 107 166 169 160 356 317 295 241 204 227 264 267 268 45 1 311 327 10 342 319 339 336 321 321 314
353 358 17 14 8 355 337 326 328 322 340 68 71 57 122 195 215 171 214 256 67 342 332 7 33 33 346 320 323 346 357 258 335 358 5 11 2 346 358 328 1 41 71 91 278 311 28 278 279 326 301 275 353 301 226 92 122 287 67 78 255 184 120 103 155 32 67 72 287 281 266 294 316 298 312 26 54 62 36 358 348 319 320 340 324 309 310 302
355 33 49 14 3 357 349 342 335 331 25 79 85 106 198 211 177 173 211 239 80 89 73 41 12 22 336 318 311 323 341 351 351 3 2 347 323 358 15 308 320 38 104 168 248 241 32 287 292 351 320 284 319 75 19 35 114 92 80 215 237 58 79 106 125 7 45 107 277 308 269 294 332 288 319 355 3 359 34 19 316 305 314 314 292 297 303 300
348 17 49 10 357 350 355 349 336 1 65 71 70 152 195 206 183 192 183 137 81 67 81 95 274 47 301 294 295 304 338 1 355 2 350 337 325 331 39 308 302 347 344 143 115 243 174 299 293 305 289 295 341 73 23 339 33 98 172 203 106 80 353 33 95 21 25 256 293 317 291 270 202 224 295 321 323 320 317 322 296 271 283 292 292 303 308 313
351 27 39 3 356 353 353 330 326 42 68 71 66 191 200 241 249 222 174 135 83 83 85 205 200 21 278 227 269 294 347 10 352 352 344 15 325 296 3 229 291 328 341 112 136 231 172 356 287 284 300 312 350 50 22 323 345 17 41 18 43 127 160 206 135 156 166 213 281 318 317 268 227 220 247 277 286 298 304 312 317 279 267 290 294 303 311 319
16 40 203 357 3 354 303 336 13 53 65 107 179 210 243 256 275 263 176 156 113 113 139 198 162 354 283 266 278 271 333 358 324 351 295 214 309 298 294 273 298 320 332 10 102 248 18 48 269 292 324 352 357 39 152 149 355 5 25 7 338 359 55 84 47 78 124 159 174 293 302 270 246 214 210 253 284 303 311 319 321 319 4 228 263 283 295 302
40 38 224 346 357 312 210 27 36 67 76 103 153 245 286 70 302 325 343 149 154 150 145 160 165 182 234 298 319 249 292 355 290 320 283 253 325 303 262 241 287 322 337 0 4 351 41 49 274 307 333 338 290 261 183 154 122 104 80 22 350 346 35 80 348 334 43 115 164 170 283 271 254 225 227 256 324 345 331 322 313 308 297 253 249 254 263 272
57 56 245 352 356 288 130 48 10 78 89 92 10 259 296 52 64 324 347 36 86 79 64 118 164 179 192 230 276 260 303 320 269 274 252 255 249 225 252 287 324 296 292 348 309 275 144 114 291 290 289 285 292 299 174 152 117 94 87 64 87 80 74 103 192 284 357 339 200 121 287 271 268 267 165 97 21 337 316 313 318 315 308 298 278 264 260 256
68 281 304 0 1 137 106 44 324 8 35 259 296 276 279 37 86 327 347 15 41 58 32 27 179 171 221 217 166 352 277 243 221 226 272 284 253 235 263 305 328 316 229 322 297 281 68 67 358 298 299 298 307 347 52 83 77 68 46 40 67 64 68 129 177 183 32 279 234 76 280 270 273 253 169 10 332 328 326 330 331 322 315 317 312 304 300 287
70 249 288 4 13 95 111 61 283 325 314 307 356 356 327 319 140 24 344 300 322 116 96 311 196 171 265 226 127 205 225 125 203 232 249 261 259 268 280 293 297 272 160 243 280 291 315 357 47 351 334 334 338 0 12 12 38 51 357 20 54 52 39 56 110 84 29 236 169 161 249 253 256 296 319 330 335 330 324 325 324 314 310 313 312 309 306 301
18 305 269 357 24 60 111 161 153 174 290 355 22 4 351 339 289 340 254 243 225 156 163 293 204 166 230 358 13 251 238 143 204 239 252 248 275 286 293 304 300 259 243 271 289 350 119 194 122 2 310 302 312 308 298 327 347 358 12 29 40 42 33 18 60 91 354 254 181 193 264 274 281 317 322 321 328 319 311 312 311 303 302 302 304 304 301 297
45 33 305 339 17 49 79 160 94 114 178 64 49 16 31 347 306 315 187 227 241 153 170 290 350 99 50 18 357 316 312 251 245 304 288 260 281 280 293 334 6 349 329 337 40 89 101 177 212 212 232 247 266 275 191 156 284 295 23 23 19 34 28 29 98 143 221 297 268 243 263 282 291 310 313 309 315 310 305 308 307 303 302 301 300 299 295 293
69 62 15 337 339 23 34 20 44 59 204 122 115 9 34 347 316 330 352 295 341 30 335 330 60 61 8 7 8 308 313 324 303 295 259 252 267 278 305 340 24 356 345 357 35 86 98 313 243 211 239 252 260 281 284 196 256 313 15 4 344 359 26 58 133 210 232 302 278 261 273 287 292 302 307 306 309 306 304 308 308 307 306 302 299 297 293 290
57 155 161 117 275 346 14 348 6 6 329 130 126 64 36 13 354 336 312 335 8 31 29 342 341 339 236 215 93 287 313 342 323 271 263 290 305 322 341 347 349 0 2 357 1 67 125 259 252 222 267 273 266 284 294 279 281 44 39 358 337 345 358 359 251 237 214 237 267 284 292 286 287 295 299 299 303 305 304 304 304 303 302 299 297 295 293 290
52 84 303 36 107 192 229 310 355 34 23 44 73 51 61 7 341 290 275 344 351 347 63 313 306 317 267 197 149 197 304 344 320 284 275 343 342 356 1 341 304 4 21 13 355 40 115 300 308 298 297 297 284 268 287 331 77 86 56 0 343 329 307 285 265 251 244 249 261 278 284 280 278 284 291 297 302 299 298 298 297 295 294 293 292 290 288 287
66 126 295 26 39 241 262 333 31 66 24 11 43 46 88 196 324 320 275 172 289 310 13 294 292 306 284 181 168 224 258 233 256 258 247 351 342 311 3 319 296 341 9 21 351 348 31 359 334 326 309 302 301 260 171 114 125 110 70 27 349 332 312 291 280 274 271 267 265 273 278 277 277 283 295 302 301 298 298 298 296 295 294 293 290 287 284 281
78 170 161 96 33 333 335 346 66 89 22 8 78 106 338 242 287 338 282 227 198 234 281 300 292 298 328 141 188 260 265 239 236 242 240 252 240 214 229 187 196 338 346 353 1 1 358 338 326 335 327 297 317 350 94 154 152 103 38 11 347 345 336 309 291 281 279 281 284 283 278 279 291 307 305 298 296 296 295 295 297 299 297 296 293 290 286 282
47 294 74 100 64 335 12 359 40 91 177 284 263 266 266 265 286 35 310 289 256 218 236 266 272 283 349 338 306 272 267 263 255 250 241 226 207 197 195 154 146 142 308 326 11 19 356 344 333 341 332 285 311 342 39 146 142 61 4 340 315 326 324 310 298 286 276 274 284 287 280 284 298 307 303 300 300 298 296 298 300 297 295 293 289 287 285 283
Height
816 815 813 811 810 808 807 806 805 803 802 800 799 798 796 795 794 792 791 790 788 786 785 784 782 781 779 778 776 775 773 771 770 769 768 767 766 767 767 768 768 768 768 768 768 768 768 768 768 768 767 768 770 769 769 769 769 772 776 781 779 777 776 770 770 770 767 767 765 763 762 765 765 761 757 756 758 759 761 759 756 755 755 758 760 761 762 767
816 815 813 811 810 808 807 806 804 803 801 800 799 797 796 795 793 792 791 789 787 786 784 783 782 780 779 777 776 775 773 771 770 768 768 767 766 766 767 767 768 768 768 769 769 769 769 770 769 769 768 769 771 769 770 768 768 772 776 780 777 773 770 763 763 763 762 764 763 761 761 762 762 761 757 761 764 761 764 764 758 758 758 759 761 764 766 768
815 814 812 811 809 808 807 805 804 802 801 799 798 797 795 794 793 791 790 788 786 785 784 782 781 779 778 777 776 775 773 771 769 768 767 767 767 767 767 767 768 768 768 769 769 770 770 770 769 770 770 770 771 770 770 769 769 771 774 779 774 768 766 761 760 760 759 760 761 761 760 761 760 758 757 760 763 761 764 763 760 760 759 761 764 765 766 768
815 813 812 811 809 808 806 805 803 802 800 799 797 796 795 793 792 790 789 788 786 784 783 782 780 779 778 776 775 775 773 772 770 769 768 767 767 767 767 767 768 768 768 769 769 770 770 770 769 770 771 772 771 771 771 770 769 770 772 775 770 765 766 762 760 759 759 760 760 759 759 761 759 756 756 758 762 763 761 757 756 757 756 760 764 765 766 767
815 813 812 810 809 807 806 804 803 801 800 798 797 795 794 793 791 790 788 787 785 784 783 781 780 779 778 776 776 774 773 775 772 768 768 768 767 767 767 767 768 768 768 769 769 769 769 769 769 770 772 772 772 772 771 768 767 770 769 768 766 766 768 763 759 758 758 760 760 760 761 760 757 756 755 756 761 759 754 751 750 750 751 756 760 763 766 766
815 813 812 810 808 807 805 804 802 800 799 797 796 794 793 792 790 789 788 787 785 784 782 781 780 779 778 776 776 774 773 775 771 767 768 768 767 767 767 767 768 768 768 769 769 769 769 770 769 770 773 773 773 772 770 766 765 770 768 764 764 764 765 762 758 758 757 759 761 760 759 757 757 758 754 754 756 751 746 745 744 743 744 748 753 759 764 766
814 813 811 809 807 806 804 802 801 799 797 796 795 793 792 791 790 789 787 786 785 784 783 781 780 778 778 776 775 775 774 772 769 768 768 767 768 767 767 767 768 768 768 769 769 769 769 770 770 771 774 773 774 772 770 768 765 769 768 764 763 762 762 760 758 758 758 760 759 758 758 757 759 759 755 753 751 746 744 743 741 740 741 745 752 756 759 761
814 812 810 808 807 805 803 801 799 798 796 795 794 792 791 790 789 788 786 785 784 784 782 781 780 779 778 776 775 775 773 770 768 768 768 768 768 767 768 767 768 768 768 768 768 769 769 770 770 771 774 773 774 772 769 768 766 768 768 764 762 760 760 759 758 758 758 759 757 758 758 758 758 757 755 753 749 744 742 743 742 742 744 748 753 754 755 757
813 811 809 808 806 804 802 800 798 797 795 794 793 792 790 789 788 786 785 784 784 783 782 781 780 779 778 777 776 775 772 769 768 768 767 768 767 767 768 767 768 767 767 768 767 768 768 769 769 770 772 772 773 771 768 770 768 767 766 764 762 759 757 757 757 757 757 757 756 757 757 756 755 755 754 751 748 743 741 742 743 744 747 748 751 753 754 756
812 810 809 807 805 803 801 799 797 796 795 793 792 791 789 788 787 785 784 783 783 782 782 781 780 779 778 777 777 774 770 768 768 767 767 767 767 766 766 766 767 766 766 767 767 767 767 767 767 768 770 771 771 770 769 769 767 764 764 763 761 759 756 755 755 755 756 756 755 757 758 755 752 755 755 748 744 743 743 744 744 746 747 747 749 751 753 756
812 810 808 806 804 802 800 798 797 795 794 792 791 790 788 787 786 784 783 782 782 781 781 781 780 779 778 778 777 773 769 767 767 766 766 766 766 765 765 765 766 766 766 766 766 766 765 766 766 767 769 769 769 768 767 765 763 762 762 762 758 758 757 755 755 753 755 756 753 756 758 754 752 753 750 745 743 743 744 746 745 746 746 746 747 748 751 753
811 809 807 805 803 801 799 797 796 794 793 791 790 788 787 786 785 783 782 781 781 780 781 780 780 779 779 778 776 771 767 767 767 766 766 765 765 764 764 765 764 764 765 765 764 763 764 765 765 767 768 767 769 768 764 762 762 760 760 762 757 756 757 754 753 752 754 755 751 753 761 759 752 746 744 744 742 741 744 746 746 746 745 745 746 748 750 752
811 808 806 804 802 800 798 797 795 794 792 790 789 787 786 785 784 783 782 781 780 780 780 780 779 779 779 776 771 768 767 767 766 765 766 765 764 764 763 764 763 763 764 763 762 762 764 764 765 767 766 767 769 767 762 760 762 759 759 762 759 759 757 751 751 751 752 753 747 754 768 764 748 742 742 742 741 742 745 747 747 746 745 745 746 747 749 751
810 807 805 803 801 799 798 796 795 793 791 789 788 786 785 783 783 782 781 781 780 780 779 780 779 779 779 774 768 768 767 766 765 765 765 764 763 763 762 762 762 762 762 762 761 761 762 763 764 765 764 766 765 763 763 763 763 761 761 763 765 766 757 748 750 750 751 751 744 753 769 761 746 743 743 740 740 741 744 747 747 746 746 746 746 747 748 749
809 807 804 802 800 798 797 796 794 792 791 789 787 785 783 782 782 781 781 780 780 779 779 780 779 779 779 774 768 767 767 765 765 764 764 764 763 762 762 761 761 761 760 760 760 760 761 762 764 765 764 763 763 765 767 766 764 765 766 765 768 768 757 748 747 747 748 748 745 752 763 757 746 744 742 739 739 740 741 744 746 747 746 746 746 747 747 747
808 806 803 801 799 798 797 795 793 792 790 788 786 784 782 781 781 781 781 780 779 779 779 780 779 780 780 774 768 767 766 765 764 763 763 763 762 762 761 760 760 759 759 759 759 760 760 761 763 765 764 764 766 769 771 771 768 769 770 767 765 765 760 752 745 744 743 743 746 750 754 753 746 742 740 739 739 740 742 743 745 745 745 746 746 746 746 747
808 805 803 801 799 798 796 795 793 791 789 788 785 783 781 781 781 781 781 780 779 779 779 780 779 780 777 770 768 768 767 766 764 763 762 762 762 761 760 760 759 759 758 758 758 759 760 762 765 766 767 769 770 770 774 778 773 770 771 768 766 765 765 758 748 745 743 742 745 745 749 750 743 738 739 739 738 739 741 743 744 744 744 745 745 745 746 746
807 804 802 800 799 797 796 795 793 791 789 787 784 782 782 781 781 781 781 780 780 779 780 780 779 782 779 770 770 771 768 766 764 763 762 761 761 760 760 760 759 759 758 759 759 760 761 764 766 768 770 771 771 771 777 777 770 768 768 767 768 766 765 761 753 748 745 744 744 745 750 750 743 739 737 738 739 738 739 740 741 742 743 744 744 745 744 745
806 804 801 800 798 797 796 795 793 792 790 787 784 783 781 781 781 781 781 780 780 780 781 781 781 785 783 774 771 771 768 766 764 763 762 761 760 760 760 760 761 761 762 763 763 763 764 766 769 771 771 769 769 770 771 769 766 766 767 767 768 767 764 760 755 748 745 746 745 747 751 748 744 740 735 737 738 737 738 739 740 740 740 742 743 744 744 744
806 803 801 799 798 797 796 795 794 792 790 788 784 782 784 786 785 784 782 781 781 782 783 783 783 784 781 775 772 770 767 765 764 763 761 761 760 760 760 761 762 763 766 769 768 766 767 769 772 772 770 768 767 768 767 768 769 768 768 768 768 769 764 755 752 747 744 746 746 746 748 746 742 737 735 738 738 736 736 739 741 740 740 741 742 743 743 743
805 803 800 798 797 796 796 795 794 793 792 790 786 785 791 794 793 791 789 783 781 782 782 782 782 781 778 775 773 770 769 767 764 762 761 761 760 761 763 764 766 768 770 771 770 769 769 772 773 769 768 767 766 768 768 768 769 768 769 769 769 770 762 751 749 748 745 747 748 748 747 744 740 735 736 739 738 736 734 736 740 739 739 740 740 743 742 742
804 802 800 798 797 796 795 794 794 793 793 792 790 790 794 795 794 794 793 790 784 781 782 781 780 780 776 774 772 771 773 771 766 763 761 761 761 763 765 766 770 772 772 771 771 771 772 772 770 765 765 766 765 767 768 768 768 769 770 770 766 765 761 752 747 747 745 744 747 748 745 742 739 736 739 739 735 734 732 732 734 734 737 739 739 741 742 743
804 801 799 798 797 796 795 795 794 794 793 793 792 793 794 794 794 793 794 795 789 782 780 780 779 778 775 773 772 772 773 773 770 765 762 762 763 765 766 767 771 773 772 772 773 775 775 771 766 765 765 763 762 765 767 767 767 769 769 767 763 762 761 753 747 747 746 746 747 748 745 742 741 738 737 737 734 731 730 731 732 731 733 734 735 737 739 741
803 801 799 797 796 796 795 795 794 794 794 793 794 794 794 794 793 793 793 796 794 784 779 779 778 777 776 774 772 773 773 773 771 767 763 763 764 765 766 768 771 772 772 773 774 776 774 768 764 765 766 762 760 762 763 762 762 765 766 763 760 758 757 754 751 750 748 749 749 748 748 746 744 740 734 735 737 732 730 732 732 732 731 730 731 733 735 737
803 800 799 797 796 795 795 795 794 794 794 793 794 794 794 794 792 793 793 795 795 786 779 779 778 777 776 774 773 773 773 771 770 768 764 764 765 766 767 767 770 772 771 771 774 774 771 768 766 765 765 764 761 762 764 762 761 762 761 759 758 757 755 754 754 752 751 752 752 752 755 752 748 744 737 737 738 733 731 732 732 733 732 730 731 732 733 735
802 800 798 797 796 795 794 794 794 795 794 793 794 793 793 793 792 792 793 795 795 790 784 781 781 780 776 776 774 771 776 773 767 767 765 764 764 764 767 769 770 772 770 769 773 773 769 768 767 765 766 765 763 763 764 763 763 763 759 757 757 757 756 754 752 752 755 757 757 757 757 756 751 743 742 743 738 733 733 731 730 732 733 732 730 730 731 734
802 799 798 797 795 794 794 794 794 794 794 794 794 793 793 792 792 792 793 798 799 794 790 785 783 782 778 778 775 774 783 780 767 765 765 764 764 763 768 771 771 771 769 771 774 772 769 767 766 766 766 766 765 764 762 762 764 762 757 756 757 756 755 755 752 751 757 758 756 758 756 758 755 744 747 751 740 735 735 731 730 730 732 733 730 730 730 730
801 799 797 796 795 795 794 794 794 794 794 794 793 793 792 791 792 792 795 804 803 794 793 789 783 781 779 779 777 778 783 780 774 770 765 764 765 764 768 769 770 771 769 773 776 772 769 768 766 767 769 768 764 762 761 761 762 758 756 758 759 758 757 757 753 753 761 760 756 760 759 760 759 747 748 752 744 741 738 732 732 731 733 734 732 731 730 729
800 798 796 795 795 794 794 794 793 793 793 793 793 792 791 790 792 793 797 805 803 795 794 791 784 784 783 780 779 782 781 780 782 777 767 767 767 765 770 770 769 771 770 774 775 770 767 766 765 767 770 768 761 760 760 760 759 757 758 760 759 762 762 761 759 755 759 762 761 765 764 763 760 747 743 746 745 745 742 737 737 735 733 733 731 731 730 729
798 796 795 795 794 794 794 793 792 793 793 792 792 791 790 791 793 798 803 806 804 798 795 792 789 791 791 787 785 786 784 782 784 778 772 772 770 767 770 770 770 771 773 775 772 770 767 764 765 766 766 764 760 761 762 761 761 759 759 757 756 762 762 762 765 760 762 768 766 768 769 765 762 752 743 745 746 744 740 738 738 736 732 730 728 729 729 729
797 795 794 794 793 793 793 792 792 792 792 792 791 790 790 793 797 805 809 805 804 801 796 796 795 794 795 796 794 791 788 786 785 783 780 778 776 775 775 776 777 774 775 776 772 770 766 762 765 766 763 763 760 761 762 762 762 760 759 758 759 764 764 763 765 763 769 774 767 770 772 767 764 754 744 746 747 744 740 737 737 736 733 731 729 728 729 729
796 794 793 793 793 793 792 792 791 791 791 790 790 790 791 796 805 813 812 804 804 804 801 801 799 796 798 800 799 795 792 790 788 788 789 787 787 787 787 790 790 783 782 785 781 775 767 764 768 765 762 763 762 763 763 762 761 759 760 763 765 772 774 772 774 774 775 774 769 772 772 767 763 750 741 747 747 742 741 739 736 736 735 732 731 729 728 729
795 793 793 792 792 792 791 791 790 790 790 789 790 791 793 801 812 817 813 808 807 805 803 803 801 800 802 801 800 798 795 794 792 791 792 791 792 792 791 793 793 789 789 791 790 783 772 767 768 764 763 763 764 767 768 766 763 762 765 767 769 777 781 783 788 788 781 774 773 777 773 767 762 749 744 749 747 742 741 741 739 738 737 736 734 732 730 729
795 793 793 792 792 792 791 791 790 789 789 788 789 791 796 809 815 813 811 809 807 804 803 805 804 802 802 802 802 800 797 796 795 794 793 791 793 795 793 792 791 792 794 793 794 793 785 777 771 768 767 765 764 766 767 766 766 768 771 770 769 773 777 780 784 782 779 777 776 775 771 764 757 748 747 749 748 747 743 743 744 740 739 739 736 733 731 729
794 793 793 792 792 791 791 791 790 789 789 787 790 797 805 815 817 813 811 807 805 805 804 807 807 804 803 802 801 800 800 799 796 797 796 795 797 798 796 794 792 794 796 795 797 797 793 784 773 770 771 767 766 766 764 764 767 773 774 770 769 770 771 781 789 787 784 782 779 776 771 765 755 746 747 751 750 751 747 743 744 741 739 739 736 734 733 731
793 792 792 792 792 791 791 791 789 790 789 787 795 806 810 812 812 811 809 804 805 806 805 807 809 808 807 805 802 800 801 801 799 799 798 798 800 798 796 795 793 794 796 798 800 796 793 785 772 771 770 764 766 766 763 765 768 772 773 770 773 774 771 779 793 798 795 786 782 782 772 764 759 746 741 745 747 750 751 746 744 743 742 741 738 735 734 733
793 792 793 792 792 791 791 791 790 790 789 789 799 809 810 807 806 806 805 804 806 806 807 810 811 811 812 810 805 802 802 801 801 802 800 801 801 797 796 795 792 793 794 797 799 796 797 789 776 774 771 763 766 767 763 765 767 769 772 771 773 776 773 775 782 790 794 789 785 788 780 769 767 756 741 740 743 747 751 751 750 748 745 744 741 738 736 734
793 793 793 793 792 792 791 791 790 790 790 794 803 809 808 805 803 803 803 804 806 805 808 813 812 812 815 813 808 805 804 804 805 806 804 804 801 796 796 796 792 792 792 794 795 794 798 793 778 776 775 767 765 765 765 766 766 768 771 770 772 775 775 778 781 783 790 794 789 790 791 781 771 762 748 743 745 745 747 750 752 750 747 747 746 744 741 738
793 793 794 794 793 792 792 791 791 791 791 799 807 808 806 804 801 802 802 802 805 805 808 812 813 814 815 813 810 808 808 808 809 810 806 805 803 796 794 796 794 791 791 793 794 792 796 795 782 776 776 772 766 767 773 773 769 768 769 771 773 775 776 779 783 783 785 792 792 790 788 776 765 761 753 747 747 746 746 748 750 753 754 753 751 748 746 743
794 795 795 795 793 792 792 791 791 792 795 804 809 807 805 803 799 800 801 801 803 804 807 811 813 814 812 810 810 810 810 810 809 810 808 805 803 798 794 794 795 792 790 791 791 791 794 796 788 778 774 774 772 772 777 777 775 774 773 776 777 777 780 780 784 787 784 786 795 796 786 769 761 758 751 747 748 748 750 752 753 756 758 756 754 751 748 746
796 797 796 794 793 793 792 792 796 801 802 806 809 806 804 802 799 800 801 801 802 803 805 808 810 811 809 809 809 808 809 810 809 809 808 805 805 802 796 792 794 794 792 791 791 791 794 797 795 788 781 779 776 774 774 774 776 778 778 782 783 781 782 781 785 791 788 786 793 799 789 769 757 754 749 750 752 752 754 755 754 754 755 756 754 751 749 747
797 798 797 794 792 791 791 796 806 811 806 804 806 804 802 801 800 800 801 801 802 802 803 805 808 809 808 808 808 807 809 809 807 808 806 804 804 801 795 791 792 794 794 794 793 790 792 797 799 794 786 782 778 776 776 775 774 777 780 783 786 786 786 787 790 793 794 793 793 798 793 770 755 754 753 753 754 754 754 753 752 751 749 751 751 749 749 747
801 799 795 793 792 791 792 800 808 809 805 804 805 804 802 802 802 801 801 801 801 802 803 804 806 807 806 806 806 808 809 806 805 805 805 804 801 795 792 791 792 793 793 795 794 790 791 797 799 794 787 781 777 776 777 776 776 781 785 787 788 788 788 790 793 794 796 795 791 795 792 769 755 756 755 753 753 752 752 752 752 749 746 745 747 746 746 745
806 803 798 794 791 790 796 805 807 806 807 806 804 802 803 803 802 802 802 801 801 803 803 803 804 805 805 805 806 807 807 806 804 803 803 804 799 792 791 791 792 793 793 793 792 790 792 797 799 798 792 784 780 780 778 778 783 789 792 792 791 791 791 791 793 795 797 794 790 792 786 765 755 755 752 752 754 752 753 753 753 751 747 744 744 743 743 743
805 804 802 798 793 793 802 808 808 808 810 808 805 805 805 803 802 803 802 801 802 803 803 802 803 804 805 806 806 805 806 805 804 802 802 803 799 793 791 791 791 792 791 791 790 789 793 798 799 800 800 795 790 789 788 788 793 796 795 795 794 794 795 795 796 799 799 796 794 792 780 761 754 756 756 755 757 756 754 753 753 752 749 745 743 742 740 740
805 804 804 803 799 801 807 811 811 811 810 808 807 808 808 805 804 804 803 801 801 802 802 802 802 803 805 806 805 804 805 806 806 805 804 803 799 793 791 790 792 792 790 789 789 789 794 799 798 798 800 798 794 793 796 800 799 796 796 798 798 799 799 798 799 801 799 799 795 788 779 768 758 760 761 759 759 759 755 752 752 751 749 746 743 740 738 736
808 809 811 809 806 807 810 812 815 814 811 810 808 808 810 809 807 805 803 801 803 803 802 802 803 804 805 806 806 806 807 807 808 806 804 803 799 794 792 791 792 791 789 789 789 790 795 797 796 797 797 796 794 793 797 801 800 798 799 800 800 801 802 801 801 799 799 802 794 781 781 779 766 761 764 762 760 760 756 753 751 749 748 746 742 739 735 732
810 813 816 815 812 811 811 812 814 815 813 812 810 810 811 811 811 809 805 803 803 803 802 803 803 804 805 807 807 806 806 806 805 803 801 801 800 796 794 793 792 791 790 791 791 792 797 798 795 797 796 794 794 794 794 798 802 802 802 801 800 802 802 802 801 798 799 802 793 782 785 786 773 765 765 762 760 759 757 755 752 749 747 744 741 738 733 729
813 814 816 816 815 815 815 814 815 814 811 810 809 811 813 812 812 812 810 807 804 803 805 804 802 804 806 808 807 805 805 805 805 802 799 800 801 799 798 796 794 792 791 794 795 795 798 798 795 797 798 794 792 792 792 797 802 803 803 802 802 802 803 802 801 799 799 799 794 789 790 785 774 768 765 762 760 760 757 755 752 748 746 742 739 736 731 726
815 816 817 816 815 816 816 816 815 811 810 811 810 812 815 814 812 813 813 809 805 804 807 805 803 804 807 808 806 804 803 803 805 803 799 800 801 800 799 799 796 794 794 796 797 797 798 799 798 799 800 796 790 788 791 797 801 802 803 803 803 803 802 801 800 799 799 798 794 793 793 782 769 766 767 764 762 759 756 753 749 745 741 738 734 730 726 722
816 817 818 816 814 816 816 816 817 813 810 813 813 813 815 813 814 816 812 808 806 804 804 805 804 804 805 805 804 802 801 802 802 801 799 799 799 797 797 798 798 798 797 798 800 800 801 802 802 802 803 800 792 789 794 798 798 799 801 803 805 805 803 801 800 798 798 797 794 792 790 778 766 766 767 764 761 759 755 751 747 741 737 733 728 723 718 713
817 817 818 816 814 817 817 817 818 815 812 815 816 815 815 813 815 817 810 806 806 804 803 805 805 804 802 800 799 800 800 800 798 798 797 797 797 796 797 797 799 800 800 801 805 807 807 806 804 804 805 801 794 793 795 796 797 801 804 804 805 805 802 799 797 794 793 795 795 790 783 774 769 770 768 761 757 755 750 747 744 738 732 728 723 717 711 705